Terminal Aerodrome Forecast
Issued by NWS

Home | Current Version | Previous Version | Text Only | Print | Product List | Glossary On
Versions: 1 2 3 4 5 6 7 8 9 10 11 12 13 14 15 16
000
FTUS44 KMAF 282300
TAFPEQ
TAF
KPEQ 282320Z 2900/2924 26010KT P6SM SCT070 SCT250
      TEMPO 2901/2905 VRB15G25KT 6SM TSRA BKN050CB
     FM291600 34008KT P6SM SCT070=

USA.gov is the U.S. government's official web portal to all federal, state and local government web resources and services.